RH
97 98 99 97 98 99 96 98 94 95 96 90 85 77 79 82 80 84 90 93 93 91 88 90 89 89 93 55 14 12 10 7 7 6 8 10 24 34 26 20 19 17 17 22 24 22 20 15 13 14 15 17 17 15 14 15 15 15 24 26 21 22 18 16 17 14 15 14 11 9 8 9 11 7 13 37 47 56 75 79 76 74 65 65 70 69 79 87
97 98 96 91 92 92 87 94 96 91 92 91 87 78 78 83 84 83 80 83 94 97 95 92 88 89 93 60 18 14 15 11 12 9 9 17 37 45 32 21 18 17 19 20 24 26 24 22 19 20 20 19 19 16 14 15 16 19 30 26 17 19 16 13 14 12 12 10 10 9 8 10 8 9 7 24 62 76 82 94 88 82 84 85 84 79 82 86
95 97 97 84 70 71 73 83 93 87 80 82 83 80 80 83 84 86 76 70 79 89 96 97 94 94 94 66 24 17 22 19 17 13 23 40 51 52 39 28 19 15 17 19 24 27 27 25 23 25 24 22 20 18 16 16 18 20 25 22 16 18 15 12 11 10 11 8 10 9 8 10 6 11 13 22 64 86 87 98 94 94 101 98 94 87 85 86
91 96 99 90 71 69 72 73 83 81 75 76 75 77 79 77 75 78 73 64 64 72 85 94 99 97 98 79 30 18 31 26 20 21 38 54 54 52 45 33 22 15 13 17 25 30 30 27 25 27 28 27 22 19 22 18 19 21 21 20 18 18 15 12 10 9 9 7 9 8 8 10 6 17 27 33 63 84 83 83 82 87 96 99 101 93 86 85
86 89 93 94 88 88 86 78 81 79 77 80 81 86 85 79 75 69 61 56 58 60 71 89 99 97 101 87 35 21 34 23 27 39 45 53 50 45 42 35 27 16 11 16 27 33 32 29 26 26 29 32 27 23 24 19 19 24 22 21 18 16 16 12 10 9 8 8 8 8 9 7 11 33 42 30 40 58 66 74 72 70 73 80 89 93 90 86
80 82 87 89 86 89 92 91 92 88 86 84 82 89 92 90 86 75 59 50 51 50 56 76 94 95 94 90 49 28 35 21 30 50 47 47 45 41 39 38 33 19 11 19 29 36 36 31 28 26 29 32 32 28 24 20 20 24 23 21 18 15 15 13 10 9 9 8 9 9 9 8 14 44 63 51 44 47 54 67 70 67 65 66 78 90 90 88
81 83 86 87 84 82 87 89 90 89 89 88 84 83 84 91 94 88 75 59 49 45 47 57 80 92 91 91 56 36 52 31 19 40 46 45 41 40 43 44 44 26 16 24 29 35 38 35 30 27 30 33 32 29 24 22 21 24 25 23 21 16 14 13 11 11 9 9 10 8 9 11 10 30 68 82 77 67 62 68 70 71 73 75 83 89 88 89
85 86 84 86 86 84 86 86 85 84 83 87 90 86 82 86 88 87 86 77 63 57 50 45 66 86 91 90 64 58 68 33 8 23 34 42 41 40 43 50 56 40 23 22 25 33 38 38 33 27 31 31 29 29 25 24 25 25 27 24 21 18 16 14 12 12 11 11 10 10 10 10 10 30 76 99 96 88 78 78 78 77 82 83 85 88 90 91
85 86 84 86 86 84 84 82 83 82 81 83 86 87 87 86 82 79 85 87 84 76 58 46 58 79 91 90 83 83 61 24 19 20 18 30 35 38 42 46 58 55 37 23 22 33 38 38 34 27 28 28 26 27 24 23 24 24 24 23 20 19 17 16 16 14 14 13 10 13 10 15 29 44 77 99 100 98 90 88 88 86 90 91 89 87 88 88
85 85 85 85 86 86 83 80 81 80 81 83 82 84 87 88 82 76 79 83 88 89 73 55 59 79 90 87 93 88 45 25 35 28 23 26 25 35 42 41 48 56 54 41 34 39 43 39 33 27 25 25 26 26 25 22 20 20 20 20 21 20 17 16 17 15 16 16 14 13 9 35 57 46 67 98 100 100 98 97 96 94 96 97 94 91 89 88
87 87 87 87 88 89 87 84 83 82 84 83 82 83 83 85 82 79 82 82 83 90 84 66 64 82 89 91 104 80 29 21 30 27 31 30 28 35 38 40 42 46 53 52 47 47 47 41 34 29 25 24 25 25 24 22 19 17 15 18 21 20 19 18 17 15 15 14 15 13 16 57 74 46 65 100 99 100 100 100 100 99 100 99 99 97 96 92
90 88 89 91 90 90 91 91 87 86 87 86 85 83 82 83 78 77 85 89 85 89 93 78 69 80 85 96 100 58 17 19 22 21 25 26 30 32 32 37 39 42 46 47 49 47 46 42 35 28 24 23 24 24 22 21 19 16 15 17 18 20 21 20 18 17 15 13 14 12 17 49 69 62 79 99 98 101 100 100 101 99 100 100 100 100 99 98
91 91 91 91 89 90 93 95 92 87 86 87 87 85 87 83 72 70 79 89 88 88 96 81 68 79 91 98 78 35 19 24 19 16 18 20 23 24 26 31 37 42 41 42 44 43 42 40 40 33 24 25 25 23 21 19 17 16 18 18 18 20 20 18 18 17 16 14 11 13 19 30 55 83 96 99 100 100 99 100 100 100 101 100 100 101 100 100
92 91 87 87 90 93 95 95 93 89 85 86 88 89 91 84 70 67 74 84 85 87 92 80 70 82 98 92 55 26 25 25 18 15 18 26 25 21 22 26 35 39 38 40 38 39 40 37 41 39 30 29 26 23 23 22 20 20 19 19 21 23 20 17 17 18 17 15 10 14 22 22 49 93 102 99 101 99 100 101 100 100 100 100 100 100 100 100
92 88 83 88 92 93 94 91 90 89 87 88 91 90 84 73 62 64 73 78 76 78 82 76 69 78 98 86 44 30 34 29 27 30 36 42 35 26 23 25 31 37 36 38 37 36 38 37 38 38 32 28 25 25 30 28 25 22 20 22 23 22 20 15 16 19 15 15 13 10 21 34 63 98 101 99 101 99 101 100 100 101 99 101 100 100 101 100
92 89 86 91 93 91 91 87 85 87 88 90 92 84 70 57 52 59 67 68 67 67 71 72 67 80 101 81 41 31 34 33 36 45 50 47 40 31 30 30 29 35 37 35 38 36 38 38 35 33 29 27 28 31 34 32 28 24 22 25 24 23 22 17 16 17 14 15 14 12 37 69 85 98 100 99 101 99 101 100 100 100 100 100 100 100 101 100
94 93 90 93 93 91 92 88 86 87 89 92 85 66 49 44 46 49 50 55 59 56 63 74 78 88 87 61 42 35 32 38 42 46 45 39 39 33 32 36 32 34 36 35 38 37 38 35 31 33 29 30 31 31 35 35 34 31 26 25 24 23 22 19 15 14 14 14 13 15 42 80 94 97 101 100 100 100 100 101 100 100 100 100 100 100 100 100
95 94 92 95 94 93 92 89 89 89 87 84 71 50 40 46 49 46 45 52 61 64 75 90 92 85 62 43 46 43 38 43 37 34 35 32 38 39 37 38 36 36 35 36 37 36 37 30 31 39 36 36 30 28 34 30 29 32 32 32 26 21 21 18 15 14 15 13 17 15 27 73 101 98 99 99 100 101 100 100 100 100 100 100 100 100 100 101
96 97 94 94 93 94 93 89 90 89 80 68 56 44 46 57 57 54 59 67 77 82 85 91 89 70 43 32 43 45 43 45 38 31 30 34 41 46 44 41 42 42 37 40 39 34 34 30 37 44 41 38 30 26 29 24 24 28 34 35 26 21 22 19 14 14 14 12 18 16 25 76 105 97 98 101 100 100 100 100 100 100 100 100 100 100 100 100
91 96 96 96 94 93 94 93 91 88 76 62 53 51 62 76 75 71 76 80 77 76 75 74 75 66 51 44 49 52 49 47 45 37 34 39 45 48 49 50 52 48 42 43 40 31 31 37 43 42 37 33 29 25 24 25 25 24 28 25 22 22 18 18 15 12 15 13 21 29 46 87 101 97 99 98 100 101 100 101 100 100 100 100 101 100 100 100
89 94 97 99 96 93 95 95 93 88 76 63 64 71 80 93 96 90 92 90 76 71 73 68 68 71 64 57 54 57 62 59 47 35 34 35 39 51 60 60 60 56 48 41 34 30 32 43 44 34 32 30 29 28 24 26 24 23 26 22 23 21 14 18 12 11 12 9 38 62 72 94 97 94 98 96 100 100 97 100 99 100 100 100 100 100 101 100
95 95 96 99 97 95 95 95 94 87 73 67 77 83 83 93 101 98 99 101 88 78 77 71 76 78 65 58 57 63 78 80 55 29 29 36 39 52 62 64 62 56 49 40 36 40 39 42 39 31 33 30 29 29 25 26 25 25 27 24 26 20 18 18 10 30 29 11 56 87 81 97 99 92 97 98 98 96 95 98 97 100 100 100 101 100 101 100
99 92 91 96 99 96 96 99 95 82 71 75 85 84 81 90 98 98 99 101 92 79 71 70 79 78 64 54 55 68 82 84 65 32 24 40 47 51 58 65 65 54 50 46 42 48 46 41 37 32 32 29 28 29 25 26 27 29 29 29 30 22 22 16 15 65 80 52 78 94 84 99 99 95 100 97 97 97 97 99 98 101 100 100 101 99 101 100
100 92 92 97 100 98 98 100 91 80 77 82 87 85 87 92 95 98 99 98 93 78 63 60 67 67 60 55 57 71 79 74 65 40 25 35 44 52 60 62 62 54 49 47 42 45 43 36 34 32 31 31 30 28 28 29 29 31 30 29 30 22 19 18 30 79 101 86 89 87 89 103 98 98 102 97 99 99 99 101 99 100 100 100 101 99 101 100
101 98 98 100 101 99 100 95 84 83 82 80 87 90 91 91 93 98 97 95 92 75 58 57 63 58 50 55 60 66 74 69 58 44 37 39 40 51 61 55 54 55 50 46 46 47 41 32 30 33 34 33 31 29 28 28 29 32 30 24 24 21 18 27 51 79 88 92 93 71 68 93 99 98 99 98 101 99 99 101 99 100 100 100 101 100 100 100
100 100 99 101 100 100 99 88 81 82 76 80 91 92 89 85 89 98 95 97 91 64 53 57 59 54 46 53 59 60 68 61 43 36 37 41 40 43 54 54 49 51 47 43 43 43 38 31 29 34 36 34 34 32 26 25 29 33 30 23 20 21 18 24 47 61 60 74 90 64 45 79 104 98 95 100 100 100 100 98 98 100 100 99 100 100 100 100
100 100 100 101 99 100 99 92 88 80 73 89 96 89 86 79 83 90 85 91 83 53 49 56 52 50 45 46 52 53 54 43 32 33 30 33 40 39 48 54 47 44 38 36 43 40 34 32 31 33 36 36 38 37 29 24 27 31 27 21 19 20 18 21 43 65 70 77 91 81 60 78 103 93 89 98 99 100 101 98 97 97 98 99 99 100 100 100
100 100 100 100 100 101 99 100 97 81 81 96 92 85 84 78 80 83 79 80 64 43 49 53 46 44 43 47 51 43 39 37 37 40 32 30 37 38 45 49 44 42 34 34 46 40 30 33 33 32 36 39 37 33 27 21 24 27 22 19 19 19 17 19 33 55 78 88 95 98 76 68 91 96 89 96 100 100 100 97 94 92 95 99 99 100 100 100
100 100 100 99 99 97 96 100 91 81 92 96 86 83 80 77 77 77 83 74 51 48 59 58 51 48 49 55 57 47 42 44 42 42 41 39 36 35 42 43 39 40 32 30 43 39 28 28 28 28 36 40 34 28 23 19 21 20 19 21 18 19 21 22 25 34 61 81 85 94 78 56 79 101 96 99 101 97 95 92 88 88 92 97 100 100 100 100
96 99 98 94 90 86 87 87 74 75 95 92 82 81 75 75 75 79 91 73 50 58 64 62 62 59 60 65 65 59 54 52 43 38 44 48 42 33 35 36 36 42 38 30 35 36 27 22 24 26 28 31 30 26 20 17 19 18 20 21 19 28 35 41 50 49 59 70 63 78 83 57 62 88 97 97 92 86 86 86 85 86 89 95 99 100 100 100
90 94 90 82 80 78 77 77 66 69 87 86 80 81 78 79 80 89 90 61 52 67 68 69 75 73 73 77 80 70 57 55 47 38 45 50 46 38 37 41 42 48 49 40 35 33 26 24 28 26 22 23 27 25 19 17 17 17 20 20 22 32 35 41 55 51 49 47 41 66 86 67 58 77 92 89 78 75 78 81 84 84 87 92 96 100 100 100
85 86 78 70 68 66 69 79 79 78 84 84 82 81 82 88 91 90 77 55 63 79 75 77 85 83 79 83 89 78 63 61 51 44 51 52 49 44 43 52 57 56 56 50 44 38 31 29 27 23 21 21 25 29 23 19 18 17 22 25 26 29 29 33 41 45 45 35 41 71 82 76 70 70 81 87 79 74 72 72 77 81 86 91 95 99 100 100
80 78 73 70 67 63 65 78 88 91 90 87 87 84 85 95 94 79 71 66 69 75 79 84 85 83 83 88 88 77 72 69 51 46 49 46 50 48 41 48 52 55 62 58 48 41 35 33 25 22 25 21 23 31 28 24 23 19 21 25 28 30 34 37 35 42 43 33 52 80 76 76 73 60 73 85 77 72 70 68 71 77 85 90 94 99 100 100
76 74 73 76 76 73 70 71 79 92 98 92 92 92 92 96 84 69 74 77 71 74 85 90 87 83 86 88 79 71 79 73 50 45 46 42 50 54 48 45 41 50 66 58 47 46 43 43 35 26 26 23 22 27 26 25 24 17 19 24 28 30 34 40 39 38 42 45 63 73 67 70 63 54 71 77 69 68 66 67 70 74 84 89 94 98 99 101
74 73 74 80 82 80 76 71 73 88 101 97 95 99 97 92 82 78 84 82 80 84 83 82 88 91 89 85 77 70 74 74 56 46 48 47 53 58 54 47 41 46 55 51 47 43 38 43 38 25 23 22 22 23 19 22 24 19 21 22 24 33 40 46 44 44 52 65 81 81 74 77 63 57 79 83 76 73 68 71 75 78 86 89 94 99 99 101
73 74 76 82 83 83 82 79 79 89 100 98 98 99 92 83 82 84 83 78 80 85 84 84 89 95 93 86 86 80 71 74 68 54 53 47 45 52 49 44 42 39 45 55 57 46 39 46 40 24 23 21 20 22 15 20 30 25 21 21 21 28 37 38 38 54 60 49 64 82 79 79 64 57 83 93 84 81 81 84 84 86 91 91 96 100 98 101
70 76 79 83 85 88 91 89 88 94 99 99 100 95 85 79 79 79 80 80 81 84 93 95 89 91 92 85 88 87 73 70 66 60 60 51 45 47 40 38 39 36 41 48 53 52 46 49 42 26 25 23 17 19 15 16 26 24 19 22 21 20 32 39 34 54 64 41 50 77 82 82 63 55 87 98 87 89 92 90 91 93 95 94 96 98 97 100
68 75 79 85 85 85 93 97 97 99 100 100 98 91 86 87 81 76 79 79 80 87 97 99 90 87 88 84 84 81 72 69 66 62 58 52 50 45 33 34 36 35 36 33 43 54 45 42 43 28 22 24 16 17 22 17 14 19 18 17 24 26 31 40 39 48 59 52 54 67 80 88 68 61 92 96 87 96 95 92 97 96 95 95 96 97 97 100
68 73 78 86 88 83 90 100 100 99 100 99 97 91 89 90 81 76 79 77 79 90 96 94 90 88 88 87 81 72 66 67 67 62 53 49 52 45 32 32 34 33 34 32 42 54 48 45 48 33 20 22 20 20 28 26 14 17 17 13 27 33 21 28 43 47 50 57 62 60 71 87 73 67 86 86 84 93 94 97 99 94 94 93 93 98 99 99
69 78 82 89 94 90 92 99 100 99 99 97 95 91 88 88 81 75 78 79 80 88 94 92 88 90 90 85 80 71 61 62 66 59 51 48 48 43 31 28 34 35 32 33 37 43 45 45 51 47 29 21 26 24 24 28 21 17 21 20 21 23 19 23 34 40 43 55 70 68 71 82 74 65 72 77 82 87 89 95 94 91 93 90 90 98 100 99
74 89 90 90 98 98 97 101 100 98 98 97 96 94 90 87 86 83 82 84 84 83 87 90 90 91 89 86 88 81 63 59 61 54 49 46 43 43 35 26 32 34 31 37 39 38 44 47 53 59 41 24 25 21 16 21 20 16 24 30 23 23 29 25 25 38 40 43 62 71 69 69 66 62 62 68 79 84 84 88 89 89 91 90 92 96 99 101
82 95 90 90 100 100 99 101 98 98 101 96 91 90 88 87 91 92 87 87 90 87 85 88 90 90 90 89 90 87 75 65 62 57 53 48 43 44 37 26 27 29 31 40 39 37 44 45 47 54 47 32 26 20 17 17 17 15 18 24 28 32 33 25 34 48 36 33 54 60 53 57 66 74 73 70 76 81 80 83 85 87 89 92 95 96 99 101
90 97 88 91 101 100 100 100 96 99 99 89 83 84 84 86 93 95 92 90 91 91 91 92 92 91 91 90 87 89 86 73 64 61 56 50 44 37 31 25 26 28 30 36 35 33 39 40 44 55 53 36 25 21 18 14 14 17 18 20 24 29 31 37 59 60 34 33 47 38 37 53 67 82 88 80 78 79 78 81 83 86 92 94 96 98 100 100
88 94 88 91 100 100 100 100 97 98 94 86 85 85 81 82 88 92 94 95 91 92 93 91 93 96 95 94 90 88 84 75 68 61 54 53 46 33 28 24 25 28 29 34 34 32 44 50 46 55 53 32 25 27 20 17 18 18 21 21 18 23 29 40 52 43 29 40 44 33 41 53 61 81 92 86 86 87 84 83 82 88 96 96 96 100 100 100
87 90 86 90 99 101 99 98 99 100 95 92 93 89 83 84 84 84 89 91 88 91 93 90 94 100 98 99 96 89 80 75 75 68 56 53 44 33 30 25 25 27 24 28 30 27 47 61 54 62 70 51 39 37 29 24 21 19 21 19 18 21 24 34 42 33 33 48 43 37 41 38 50 83 94 89 91 94 93 89 85 91 95 95 98 100 100 100
91 93 89 90 96 100 99 98 100 101 97 98 96 87 86 88 82 79 85 88 86 86 87 88 95 100 100 100 97 90 78 71 76 76 64 58 48 32 27 26 25 23 22 31 35 33 51 66 59 63 71 57 42 38 35 28 20 20 23 19 20 22 21 33 43 39 45 49 41 47 47 27 36 74 93 96 93 93 98 96 92 95 95 96 100 100 100 101
90 96 96 96 95 97 98 97 100 101 97 98 96 89 90 92 84 82 87 87 85 86 85 85 92 100 100 98 94 89 82 74 77 80 72 69 62 39 25 28 25 21 26 33 35 43 60 67 62 60 57 49 43 40 37 28 20 22 25 22 24 29 32 33 35 41 51 45 40 63 67 38 34 61 83 93 94 93 97 96 94 97 97 97 100 100 100 101
85 93 97 99 97 97 97 94 96 99 97 96 96 94 94 93 89 89 91 88 86 89 91 90 90 92 93 95 97 94 87 79 76 81 81 75 62 41 27 27 23 20 29 33 37 56 71 68 65 61 55 49 46 44 38 26 19 21 25 27 28 37 41 33 33 50 49 30 33 62 74 54 40 52 70 84 90 91 94 93 92 96 97 98 101 100 100 100
89 94 96 97 98 98 98 97 96 98 98 94 93 92 92 94 91 86 86 92 94 88 90 96 92 85 87 94 97 92 85 80 75 81 89 76 56 47 43 39 32 25 27 34 44 57 64 66 65 56 54 54 51 53 47 29 21 22 23 25 27 38 44 31 38 60 50 30 36 53 63 56 45 54 73 80 81 85 90 94 95 97 100 99 100 100 100 100
98 99 99 99 100 98 99 99 97 99 97 89 85 85 86 90 89 83 80 91 100 91 89 97 92 85 91 98 96 88 82 83 80 80 85 76 59 55 55 53 50 41 33 38 48 48 48 64 71 58 54 60 59 62 55 34 24 25 23 24 25 35 40 31 42 60 48 43 60 66 62 56 57 78 93 86 83 88 93 97 97 98 101 100 100 101 100 100
99 100 101 101 99 96 96 94 94 99 96 87 85 85 86 87 84 84 83 84 92 94 92 96 94 90 95 97 95 91 83 82 81 77 78 74 64 60 56 50 50 49 47 49 54 55 53 62 69 58 53 62 61 55 48 36 29 26 24 28 31 37 42 42 52 60 47 50 74 79 64 54 66 91 101 93 92 94 95 98 99 100 100 99 100 101 99 100
98 100 100 101 99 94 95 95 94 94 89 84 86 85 87 86 79 82 88 84 82 85 89 94 95 96 99 92 85 82 76 74 75 72 72 71 66 65 62 54 51 54 60 62 61 64 63 57 58 56 53 63 67 54 40 33 28 28 34 36 34 39 46 43 45 53 53 62 72 61 47 56 76 91 96 97 97 95 95 97 96 98 101 99 98 99 100 101
Wind_Speed
16 15 14 14 15 14 14 15 15 15 15 15 15 15 15 15 15 15 16 17 17 17 17 18 19 19 20 19 18 19 21 21 21 21 20 17 15 17 20 21 16 13 17 17 15 14 14 16 16 16 16 14 13 12 15 13 11 10 4 4 7 5 6 7 8 8 6 5 7 11 14 10 8 7 1 1 2 8 7 6 7 7 4 5 10 14 24 30
16 15 15 15 15 14 14 14 15 14 14 15 15 15 16 16 16 15 15 16 17 18 18 18 18 18 20 19 17 19 20 20 21 22 17 13 12 13 15 20 21 18 18 20 17 14 13 14 15 15 14 12 10 10 12 12 13 9 3 4 8 5 7 10 12 11 8 7 9 12 15 12 9 6 2 1 4 10 7 7 9 10 10 11 14 19 28 31
15 15 15 15 15 15 15 15 15 15 14 15 15 15 15 16 16 16 16 16 16 17 18 18 18 18 19 19 17 18 19 20 21 16 9 9 7 8 13 19 21 21 21 20 19 17 14 13 13 14 14 11 9 11 11 11 11 9 4 5 7 5 7 12 16 17 17 13 12 12 10 9 9 6 3 3 6 7 6 8 10 15 19 19 22 26 30 32
13 14 14 16 16 16 16 16 16 17 16 16 15 15 16 16 16 16 17 17 16 17 18 18 18 18 18 19 17 16 18 18 15 7 8 8 5 6 12 18 20 22 23 21 20 19 16 14 12 12 13 9 9 11 9 12 10 5 6 5 5 7 6 13 19 21 22 19 16 12 5 5 7 5 4 7 7 3 8 14 13 18 25 27 29 30 32 34
13 12 13 15 16 17 18 18 18 18 17 17 16 16 16 17 16 16 17 17 17 17 18 18 18 18 18 19 16 14 14 9 3 5 8 6 5 6 8 14 17 19 23 23 21 19 16 15 12 11 10 6 8 8 7 16 12 2 6 4 4 9 5 10 20 21 21 21 16 10 3 3 4 3 5 8 6 4 7 15 17 20 25 27 30 32 34 35
14 13 13 15 16 17 18 18 19 18 19 18 17 17 17 17 17 18 17 17 17 17 18 17 17 18 18 19 17 13 7 4 1 4 6 4 4 3 5 8 11 17 23 24 23 19 16 16 13 11 8 4 7 7 5 15 15 4 5 5 6 10 5 7 18 22 21 17 12 8 5 3 3 2 3 5 6 6 6 13 18 20 23 25 30 33 35 36
16 16 16 16 17 18 18 18 19 19 19 19 19 19 18 17 17 18 18 17 17 17 17 17 16 16 19 21 18 12 9 14 10 5 8 5 2 2 5 4 5 14 23 25 23 20 16 16 15 12 8 3 7 8 5 9 13 8 4 4 7 11 10 9 13 19 21 17 14 11 5 2 1 1 2 2 4 9 6 13 20 23 26 27 30 33 35 35
17 17 17 17 17 18 18 19 19 19 20 19 19 20 19 18 18 18 18 17 18 17 16 16 15 15 18 20 17 13 16 20 15 11 13 8 4 3 4 3 1 10 20 23 22 20 17 16 16 13 7 4 5 7 8 5 6 9 7 3 5 9 13 14 12 14 16 15 16 13 6 5 4 2 3 3 2 4 6 17 24 28 29 30 32 34 34 35
18 18 18 18 19 19 19 19 19 20 20 19 19 20 19 19 19 20 18 18 18 17 16 16 14 14 16 17 15 13 18 17 14 14 15 13 11 7 4 2 1 5 13 20 21 19 18 16 18 14 5 6 6 5 10 9 4 6 9 7 4 4 9 15 18 17 15 12 11 7 4 5 3 5 2 3 4 7 14 23 29 31 32 33 34 34 35 35
17 18 19 20 21 21 20 20 20 20 20 20 19 20 19 19 20 20 19 19 18 18 17 15 13 13 15 17 11 8 13 10 9 10 10 14 15 11 6 3 3 2 6 14 18 18 18 15 16 15 5 6 9 6 10 11 4 1 6 11 10 9 11 12 15 19 17 12 11 5 1 3 7 6 2 4 12 16 21 27 30 32 33 34 35 35 35 35
18 18 19 20 21 22 22 20 20 20 20 20 20 20 20 20 19 19 19 18 18 18 18 16 13 13 16 17 13 13 14 12 10 12 11 12 14 13 9 6 5 3 4 8 12 15 18 14 12 13 5 4 7 5 8 10 5 2 2 5 10 13 16 16 12 11 10 8 13 11 3 3 5 3 5 12 18 21 26 28 30 32 32 33 34 35 36 35
19 19 20 20 21 23 23 21 20 19 20 20 20 21 21 20 18 18 18 18 18 17 17 18 13 12 16 20 27 25 19 18 18 19 19 15 14 15 12 10 8 6 5 5 7 9 14 15 12 13 7 4 4 3 7 10 6 3 2 1 5 6 11 18 15 11 8 3 9 14 4 2 3 2 10 20 23 25 27 28 29 31 31 32 32 33 35 35
19 19 20 22 23 24 23 21 20 20 20 21 21 22 22 21 18 17 18 18 18 17 17 18 15 13 15 22 31 27 23 23 22 21 19 16 17 18 15 14 12 9 7 5 7 6 9 14 15 16 10 3 3 2 2 4 5 3 3 3 3 2 6 14 15 13 11 5 9 14 4 5 4 4 13 23 27 29 28 28 28 29 29 31 32 32 33 34
20 21 22 23 23 23 22 22 21 21 21 21 21 22 22 21 19 17 16 17 18 17 18 17 14 12 15 25 32 27 24 23 20 17 14 13 17 18 16 16 15 12 10 7 8 7 7 10 12 15 13 9 5 2 3 1 3 4 3 2 4 4 3 7 12 13 10 7 14 14 4 6 4 5 17 24 29 33 30 27 28 29 29 30 31 32 32 34
21 22 22 21 21 22 23 23 23 22 21 22 22 22 23 23 21 17 15 16 17 18 19 16 15 13 16 28 31 22 17 16 13 10 8 9 12 14 12 13 16 16 12 10 9 7 5 7 9 9 9 11 8 3 3 2 2 3 5 4 5 6 3 1 8 14 12 6 14 14 3 5 3 7 18 21 28 34 29 26 28 30 30 31 31 31 32 34
22 23 20 19 21 23 23 23 24 24 22 22 23 24 23 22 21 18 16 17 17 19 17 14 13 10 11 18 17 11 10 10 9 7 6 7 9 11 9 10 16 17 14 12 9 6 4 5 7 8 5 5 5 2 3 1 2 2 7 6 6 8 4 2 4 10 13 6 9 11 3 2 3 8 16 16 23 30 26 23 27 30 31 32 32 31 31 34
22 23 20 18 21 22 23 23 24 24 23 23 23 23 22 21 20 16 15 16 16 15 13 11 10 8 13 17 15 14 14 11 10 10 9 8 9 12 11 10 13 15 15 13 12 8 6 7 6 6 5 3 4 4 3 5 7 4 6 5 3 5 5 4 4 4 11 9 6 8 5 3 4 11 17 16 20 25 24 22 26 30 32 32 32 31 32 34
22 23 20 18 20 21 22 23 24 24 24 24 23 22 22 19 16 14 13 13 11 8 7 9 7 4 11 16 13 13 13 12 14 15 14 11 10 11 11 10 9 13 14 11 13 11 8 8 6 4 3 3 4 6 8 8 9 7 5 4 1 2 6 7 4 3 10 10 8 8 6 5 4 11 17 18 21 24 24 24 25 28 30 30 30 31 32 34
23 23 20 18 20 21 21 22 23 24 25 24 21 20 17 13 11 9 8 7 5 4 3 8 10 4 10 13 11 14 17 19 20 20 18 13 9 8 8 10 8 10 9 5 7 10 9 5 4 5 5 9 10 12 10 2 4 9 7 5 5 4 5 6 5 5 8 8 8 9 8 6 7 11 13 14 19 21 22 22 21 24 27 26 27 30 33 35
22 22 20 20 20 21 20 21 23 24 25 23 19 17 11 8 7 5 7 12 13 12 12 15 17 19 24 25 23 23 24 23 22 22 20 14 8 8 6 10 7 8 8 4 3 7 10 5 4 9 10 12 10 8 7 2 4 8 8 6 6 5 4 4 4 5 7 7 5 8 8 7 10 12 12 15 18 17 18 19 19 21 24 25 27 28 30 32
21 20 20 21 21 20 19 20 22 24 24 20 15 12 8 7 6 6 11 16 18 18 20 23 24 28 32 32 30 27 24 22 25 24 20 17 13 8 5 9 6 5 6 5 4 4 8 7 10 11 7 7 7 4 5 4 4 5 7 7 6 5 4 5 4 4 6 6 3 5 9 7 10 12 13 16 16 14 19 21 21 22 23 26 28 28 28 28
22 20 20 20 21 19 19 21 22 22 21 16 11 9 8 8 6 9 13 13 19 21 23 25 26 31 33 32 31 28 19 15 22 24 15 10 12 9 7 8 6 5 5 6 4 3 5 9 9 8 5 6 7 6 6 7 1 3 3 6 5 5 3 4 3 1 2 5 3 4 8 5 8 11 10 12 12 14 21 24 23 24 24 24 27 28 29 27
24 21 18 19 19 18 20 21 21 20 18 11 9 10 9 8 7 11 12 11 18 21 20 20 22 27 28 25 23 20 15 10 13 20 13 7 9 12 10 6 4 5 6 7 8 6 6 7 6 8 6 7 6 8 8 6 4 2 3 4 3 4 5 4 3 3 3 3 4 6 5 3 6 6 5 7 8 9 15 19 20 22 23 24 26 27 29 29
24 21 18 19 19 18 20 21 20 18 12 9 11 10 8 9 9 11 11 8 11 13 11 9 12 18 17 14 10 12 15 12 11 10 7 8 10 11 9 6 4 5 7 11 12 8 4 5 7 11 8 7 6 7 10 7 5 3 3 3 3 4 5 4 3 3 5 3 5 9 5 1 5 6 4 4 5 6 11 14 15 18 22 23 23 26 29 30
22 21 19 20 19 20 22 22 17 12 9 8 9 7 6 8 9 10 9 5 5 8 6 4 6 7 5 3 4 9 11 12 18 12 4 8 10 6 6 8 6 6 9 10 8 6 5 6 6 12 10 8 6 6 9 9 6 3 3 6 6 5 2 2 4 4 5 2 1 5 3 2 5 8 7 5 6 7 9 10 12 16 20 22 24 26 28 29
22 22 21 21 20 21 22 18 12 10 10 8 5 5 7 8 7 8 5 2 4 4 1 1 3 1 3 1 3 4 4 6 15 16 10 9 8 3 4 6 5 5 6 6 3 3 5 6 2 7 11 10 7 5 7 10 7 4 5 8 8 4 0 3 6 4 4 3 4 4 4 2 5 9 9 7 7 8 8 8 10 14 20 25 26 26 27 27
22 22 21 21 19 18 18 14 12 13 10 5 4 7 9 7 5 5 2 2 3 1 2 2 2 1 4 4 4 7 3 7 12 9 15 14 9 4 3 3 3 4 5 5 3 2 7 9 6 4 9 10 8 5 6 9 8 5 6 9 8 5 3 1 6 3 3 3 2 2 3 3 4 8 10 9 8 8 8 9 10 15 22 25 26 25 26 28
22 21 21 20 18 15 14 15 16 13 6 3 5 7 7 5 3 1 2 1 2 1 1 2 2 2 6 3 9 10 5 11 8 5 9 16 12 5 3 4 4 4 6 8 5 2 7 12 10 5 5 7 7 6 6 9 7 5 7 9 8 7 7 4 5 3 1 3 2 5 2 4 3 5 9 10 10 10 10 12 12 17 22 24 26 27 27 28
21 21 20 18 17 14 13 15 14 7 1 2 4 5 3 1 1 2 3 0 2 1 0 1 1 3 5 1 10 13 9 7 3 5 2 12 15 6 2 6 4 4 7 8 5 2 5 12 12 7 4 4 5 6 8 9 4 5 8 7 4 4 4 3 4 3 3 2 5 8 6 4 3 3 9 11 12 13 11 12 13 18 23 24 27 30 29 29
21 21 19 17 16 12 11 12 8 2 4 3 3 2 0 2 1 2 1 1 2 1 1 1 1 3 5 3 4 8 6 4 5 5 1 6 10 9 5 4 3 2 3 4 5 4 2 8 11 6 4 5 6 7 8 9 6 5 7 6 5 3 3 4 2 4 3 3 6 9 9 5 3 3 7 10 11 15 13 11 13 17 23 26 29 32 31 30
23 21 18 15 13 10 10 9 4 4 6 4 2 3 3 1 2 1 2 2 2 2 2 2 1 2 3 2 2 4 2 3 5 3 2 3 3 7 4 2 1 2 2 2 4 7 3 3 5 3 8 8 5 6 8 9 8 5 5 5 5 1 3 4 4 3 3 6 5 8 8 5 4 5 6 9 11 16 16 14 15 18 23 28 30 32 33 32
23 19 15 12 10 9 7 4 1 4 5 5 4 4 3 1 1 2 3 2 2 3 1 1 1 2 1 1 2 4 2 3 3 1 2 2 3 4 3 3 2 2 2 2 3 4 3 1 2 2 9 12 6 4 6 6 8 5 4 6 6 2 1 1 2 0 4 6 4 6 9 4 5 5 8 12 11 14 17 18 21 23 26 30 31 32 33 32
22 16 11 9 9 7 4 3 4 4 5 6 5 3 2 0 2 4 3 1 2 2 1 1 3 3 3 2 3 4 2 3 3 1 2 2 3 4 4 4 3 4 2 3 4 3 2 2 2 2 5 11 9 5 5 6 8 8 4 7 8 5 5 6 5 2 3 3 4 3 8 4 4 4 8 14 15 19 24 27 28 27 28 31 31 31 31 32
20 14 9 7 7 5 3 5 7 7 6 7 5 2 1 2 3 3 3 3 2 3 2 1 3 5 6 6 5 3 2 3 3 2 2 3 3 3 4 4 3 3 2 3 3 5 5 3 4 5 3 8 10 6 5 6 7 8 3 5 5 5 6 6 4 3 3 1 3 1 4 4 3 3 8 13 15 20 24 25 23 22 24 26 26 28 30 31
18 12 8 6 6 4 4 6 8 8 9 8 4 1 3 3 3 2 3 3 1 3 3 2 4 7 6 7 6 5 4 3 3 3 2 3 3 4 4 4 4 2 2 4 2 3 6 4 5 5 4 7 9 6 5 7 6 5 2 4 3 5 5 3 3 4 4 2 1 1 4 4 4 4 5 4 6 9 14 16 18 19 22 25 25 28 31 31
14 7 8 7 6 6 5 6 9 10 10 7 2 2 4 3 2 2 1 1 1 3 4 4 5 6 5 2 2 4 5 2 2 1 1 3 3 3 4 2 4 5 3 4 2 2 5 4 4 3 5 6 9 9 7 7 6 3 3 5 4 4 6 3 1 1 4 3 1 2 3 3 1 4 4 0 3 6 10 13 16 20 25 27 26 28 32 32
11 7 10 10 7 5 6 6 9 12 10 6 3 4 3 3 4 3 2 2 2 2 3 4 2 2 3 1 0 2 4 2 1 1 1 2 2 3 3 1 3 7 6 3 0 1 5 3 4 5 7 8 10 12 7 6 7 5 6 6 3 3 2 3 1 3 4 3 3 1 3 2 1 2 4 2 6 8 9 10 12 17 24 26 27 29 33 33
12 5 10 14 10 5 6 6 10 13 9 4 5 6 3 3 4 4 4 4 3 3 3 3 1 2 1 2 1 3 4 2 2 2 2 2 3 4 6 2 2 7 8 5 1 3 3 1 4 6 10 7 7 9 6 7 6 5 6 5 4 4 3 1 3 1 2 3 3 3 3 3 4 4 3 4 9 10 10 10 10 14 20 24 28 30 32 34
11 2 7 15 12 7 6 4 13 12 5 1 4 5 3 4 6 8 8 7 6 5 4 3 3 2 2 2 1 3 5 4 4 3 2 2 3 4 8 5 2 6 9 8 3 3 1 1 2 4 8 6 4 5 7 7 4 2 5 5 3 4 4 2 3 2 3 3 2 2 2 3 5 5 7 10 13 13 12 12 12 16 23 28 30 31 33 35
9 0 4 14 13 7 4 5 12 8 1 3 3 3 3 5 8 11 11 8 6 5 3 3 3 2 2 3 2 3 4 4 5 3 2 4 3 3 7 8 4 5 8 8 5 2 2 0 1 3 3 6 5 6 8 9 5 4 6 6 4 2 2 3 2 1 3 3 2 2 2 5 6 5 9 13 12 13 15 15 14 17 25 31 32 33 33 34
10 1 4 14 13 3 2 7 7 2 2 3 3 4 5 5 7 10 11 11 9 7 6 4 4 3 3 3 2 1 2 3 4 3 2 4 4 3 6 11 8 5 5 5 3 3 1 0 1 2 1 4 4 3 5 7 7 6 5 4 6 4 4 4 4 1 2 3 3 4 1 7 6 4 9 11 10 11 15 17 15 20 28 31 31 34 34 34
10 1 4 13 10 1 5 4 3 2 3 4 6 8 9 9 7 7 8 7 8 8 7 5 5 5 5 4 2 1 2 3 3 4 3 4 6 5 7 15 16 9 6 3 2 4 3 1 1 2 3 5 4 1 6 9 8 6 4 3 4 4 5 6 5 3 1 0 1 3 0 6 6 3 5 6 7 11 15 15 12 16 25 27 28 31 32 33
8 3 4 10 6 3 3 1 2 2 3 7 10 12 13 9 4 5 4 2 5 6 5 4 4 4 4 3 2 2 3 3 3 5 4 4 7 8 9 17 19 11 5 3 2 5 5 1 1 3 3 2 4 4 3 8 8 5 5 4 5 5 5 5 5 4 3 2 1 1 2 6 6 5 3 3 5 8 12 12 8 10 17 22 25 28 30 32
9 6 4 8 6 4 2 2 2 2 5 8 10 11 11 6 5 6 4 2 4 4 4 4 3 3 3 1 2 3 3 3 3 5 4 3 5 10 14 18 17 10 6 5 5 5 4 1 1 1 2 2 3 2 1 4 6 5 5 6 6 6 6 5 3 4 3 5 5 4 4 7 5 5 2 3 6 5 8 11 12 13 18 22 25 27 29 31
10 4 3 7 5 5 5 2 2 4 6 8 9 10 9 5 7 10 8 6 6 4 3 3 2 3 3 2 2 5 4 4 3 3 3 2 3 6 14 19 17 11 9 10 10 8 4 2 3 3 2 4 5 5 4 4 5 5 6 9 9 8 9 6 3 4 4 4 4 5 5 8 6 4 1 4 7 6 7 11 14 17 21 24 25 27 30 31
6 2 4 8 5 5 7 6 4 3 5 6 6 6 6 6 9 10 8 7 7 6 4 2 3 2 3 4 3 5 4 4 3 1 1 3 2 3 14 24 20 14 14 13 11 9 3 1 3 4 4 5 6 6 3 3 5 5 7 9 9 8 9 7 4 5 5 3 2 5 6 6 8 5 3 4 6 7 7 10 14 20 24 26 26 27 30 31
4 0 3 6 4 4 5 5 3 2 6 8 4 3 7 9 10 6 3 4 5 6 5 3 5 2 2 4 3 5 5 3 2 2 4 5 4 3 13 22 18 17 20 16 9 6 3 2 3 5 7 8 8 8 5 5 8 8 7 8 7 7 9 8 6 6 6 6 4 8 5 5 9 8 8 8 7 8 8 10 15 22 26 27 27 27 29 30
4 1 1 4 4 3 3 5 7 7 11 10 3 2 8 10 10 8 2 4 4 3 2 1 5 4 4 4 4 3 2 1 0 3 5 5 4 0 6 11 10 15 18 10 6 4 3 2 4 4 7 10 10 10 8 8 10 9 9 10 8 8 11 10 9 7 7 8 8 8 7 8 9 9 9 9 6 5 7 13 19 24 26 27 28 28 29 30
5 2 2 4 4 5 8 13 14 11 10 8 3 3 8 10 11 11 6 3 3 2 2 2 4 5 7 5 4 2 3 2 1 4 3 2 4 4 5 5 5 10 11 5 3 3 3 3 4 4 7 11 11 9 8 8 9 9 11 12 10 10 11 11 8 7 8 8 9 7 9 10 9 7 7 6 5 5 8 13 17 22 26 27 28 29 30 31
7 5 7 9 7 9 12 13 11 8 6 4 4 5 7 9 11 14 10 5 4 4 2 5 11 11 8 6 3 2 2 3 3 4 3 1 3 5 4 4 4 5 6 4 1 2 2 3 1 1 4 8 7 5 7 9 10 11 11 12 12 11 10 7 4 3 5 5 5 4 6 8 8 4 4 7 13 13 13 16 19 23 26 27 27 29 32 33
9 7 8 8 6 6 8 8 5 4 3 2 4 6 8 9 12 14 11 6 5 5 3 6 13 9 4 4 3 2 4 6 7 9 7 3 2 2 1 3 7 6 5 4 1 2 3 2 2 2 3 6 4 2 6 7 9 10 10 11 12 10 7 5 4 5 7 6 3 5 5 7 7 3 4 8 13 12 11 15 20 23 28 30 29 31 33 35
14 12 8 5 5 4 4 6 4 3 3 2 5 7 8 11 13 11 8 5 6 10 9 7 10 6 2 3 5 6 8 11 13 15 12 9 8 3 4 1 6 7 5 3 2 2 3 2 2 1 2 6 4 2 5 6 6 5 8 10 12 9 6 4 2 5 8 7 7 6 6 6 5 6 6 6 8 9 12 20 25 27 29 31 32 34 36 37
Wind_Direction
348 348 347 345 346 346 343 341 341 340 340 336 334 333 333 331 331 333 331 329 328 326 322 319 320 322 323 321 319 315 310 309 303 293 287 280 276 275 268 256 241 217 216 222 223 223 222 222 223 223 220 214 219 216 207 203 186 179 159 196 214 187 191 179 174 189 169 202 223 218 222 211 243 268 191 14 130 134 123 112 133 168 194 189 202 189 166 163
346 346 346 346 346 343 342 341 339 339 337 336 336 334 335 334 332 329 326 326 329 329 325 323 321 320 321 321 321 318 314 311 304 300 294 273 266 278 271 257 242 222 216 216 216 219 217 217 217 216 210 204 209 202 200 199 192 190 138 198 219 183 182 180 178 185 171 202 224 227 228 210 229 254 165 211 160 143 114 91 122 129 129 156 173 171 167 165
346 345 344 346 347 344 342 340 338 337 335 336 335 335 336 335 333 329 325 324 324 326 326 326 324 321 320 320 323 321 318 316 308 303 281 246 255 274 258 252 242 224 216 213 212 214 213 207 208 207 198 197 198 188 192 193 197 210 187 210 230 182 186 194 186 191 196 209 229 236 229 204 225 242 180 176 162 161 157 142 137 133 137 151 163 168 167 167
343 343 343 343 345 345 343 342 339 335 335 335 334 334 333 331 331 327 326 322 319 321 324 326 324 325 323 320 325 324 323 322 311 273 215 215 227 261 255 248 240 226 216 211 209 210 209 201 199 196 188 193 191 183 194 193 189 208 200 215 217 173 192 210 198 201 207 211 226 236 210 189 230 227 170 150 144 227 211 184 175 163 158 158 166 170 169 171
343 346 345 342 344 343 341 341 338 335 334 331 331 332 329 329 327 324 325 322 320 319 321 324 324 326 322 319 323 325 331 333 314 194 199 202 211 259 268 249 238 224 214 210 207 205 204 200 192 184 180 181 178 181 213 201 191 217 221 227 199 180 194 214 204 206 211 213 227 239 219 198 215 169 159 166 176 250 212 195 196 184 177 173 173 172 171 174
348 350 348 345 344 340 337 337 336 333 331 327 326 324 324 326 324 324 325 322 322 318 320 323 324 326 319 316 318 322 324 268 237 159 202 215 217 276 308 263 236 216 209 206 205 202 203 198 189 181 172 164 183 189 200 196 199 232 245 235 213 199 199 208 207 211 214 215 219 227 239 204 144 99 162 178 214 249 218 198 198 188 187 185 178 174 175 178
352 351 347 343 340 336 333 332 331 328 328 325 322 319 319 320 320 321 322 322 320 317 319 320 324 325 314 312 314 314 276 256 269 226 223 251 249 315 355 323 244 205 203 205 204 202 204 199 191 181 162 160 201 203 192 190 203 221 248 250 224 213 211 216 213 215 222 225 226 229 249 253 160 247 197 138 255 263 232 190 190 184 184 184 179 178 179 181
347 345 342 338 334 332 329 327 326 324 323 320 319 317 315 315 315 316 320 321 319 318 318 319 324 323 314 316 324 315 277 267 279 261 245 260 262 289 348 9 311 193 195 204 207 206 207 201 194 181 166 196 190 190 196 198 223 223 228 241 225 218 218 227 233 229 230 236 243 247 259 271 269 192 150 64 340 254 176 174 179 177 179 181 181 181 181 183
340 337 335 332 329 328 325 323 321 319 319 316 315 314 311 311 310 311 316 318 318 317 315 318 321 318 312 312 323 311 281 278 292 275 251 251 255 259 282 351 15 187 190 199 204 210 210 205 199 184 178 209 184 177 183 188 239 217 209 219 225 234 225 227 236 242 242 244 246 247 264 264 220 157 122 76 135 157 157 164 171 173 175 180 183 183 184 186
335 333 331 328 326 323 320 319 318 319 318 316 313 309 307 307 307 307 308 313 317 314 312 314 317 316 305 301 309 289 278 296 314 292 256 249 253 250 259 289 318 273 203 200 202 209 210 212 207 194 201 209 195 201 178 181 223 186 190 216 225 238 246 237 235 241 244 248 237 210 217 206 164 170 201 140 152 155 155 160 167 172 176 180 184 185 187 190
333 332 329 327 325 321 318 318 318 320 319 317 314 308 305 304 305 303 303 308 311 312 311 308 311 306 295 291 271 253 277 298 301 297 286 272 260 252 252 255 276 278 236 218 213 213 211 212 204 196 213 218 195 208 208 209 235 283 162 209 233 230 243 245 236 236 232 244 229 203 179 151 144 183 184 156 157 160 158 161 169 174 177 182 184 185 188 192
332 331 328 325 322 320 320 320 319 320 318 316 313 308 304 301 303 301 299 302 302 309 307 303 307 295 291 282 260 261 289 297 288 283 279 284 273 260 256 248 252 249 247 238 216 218 210 200 195 200 202 192 179 178 232 229 219 253 150 162 268 230 235 237 230 227 207 224 213 188 189 218 180 212 166 155 160 164 162 164 172 176 180 184 184 187 189 193
329 328 325 322 323 324 325 323 320 320 316 313 311 309 304 302 307 301 294 296 297 302 298 298 302 292 290 276 266 280 303 299 291 280 271 279 274 261 255 244 238 233 244 235 190 188 197 193 204 217 214 190 175 155 244 222 173 179 153 164 264 270 251 227 218 218 205 211 188 170 201 245 223 218 168 159 162 164 163 167 174 177 181 184 186 189 191 194
324 321 320 325 330 331 328 324 321 318 314 313 309 306 304 305 310 303 293 291 290 292 293 296 295 286 276 269 278 297 302 291 288 281 271 273 268 260 254 242 233 230 241 231 181 163 170 182 204 224 235 236 241 315 340 343 149 153 156 174 195 222 261 198 190 194 197 215 185 169 232 248 243 208 174 165 166 166 166 172 177 179 181 185 188 191 194 196
325 323 326 333 335 332 328 325 323 318 314 312 308 305 306 309 311 306 296 286 283 286 290 293 288 282 275 276 288 302 296 289 289 290 280 274 269 258 251 237 229 230 239 232 195 176 169 172 192 211 233 235 239 317 355 339 357 147 179 200 193 210 270 214 188 184 187 199 177 173 228 245 237 193 177 169 170 170 168 173 179 181 183 186 190 192 196 199
329 330 333 335 331 328 327 325 325 320 314 310 308 308 310 313 311 302 294 286 282 283 283 283 281 276 273 283 297 303 296 298 293 288 273 279 281 260 251 237 227 228 235 234 220 214 205 188 194 197 197 207 198 126 61 320 293 225 202 201 195 208 235 280 250 194 176 149 172 186 176 207 213 184 184 177 172 171 168 173 180 183 187 189 191 193 196 200
330 330 332 330 326 325 325 325 324 322 316 311 310 312 314 314 308 301 294 286 282 280 276 270 273 272 265 273 283 283 288 291 287 288 274 281 294 274 263 248 225 223 232 235 236 236 212 191 181 189 200 176 147 127 127 202 222 228 207 201 195 194 185 203 273 215 166 153 187 196 169 215 207 173 181 182 175 172 169 176 182 185 189 191 192 194 197 200
329 329 329 324 323 323 323 324 322 320 318 313 314 318 318 314 308 307 298 289 284 281 270 246 242 283 270 262 266 282 296 296 292 290 279 285 300 281 256 237 217 216 225 231 235 226 201 194 170 148 192 178 158 168 183 210 215 199 173 176 138 131 175 191 224 206 166 171 184 176 186 224 188 165 179 185 180 174 174 179 184 187 190 192 194 196 197 201
330 330 329 322 321 320 320 321 318 319 319 315 317 322 320 313 310 311 303 298 274 248 259 223 204 219 267 261 271 294 298 294 293 290 285 290 296 281 237 213 208 202 200 206 224 205 182 176 156 161 192 194 196 191 189 222 196 173 143 155 160 144 197 200 214 210 165 169 185 173 181 185 164 169 175 182 184 179 176 178 183 189 191 193 195 197 200 203
328 329 328 323 320 315 316 319 316 319 320 317 323 331 336 334 325 318 305 295 274 262 265 250 235 245 264 273 283 292 292 290 290 285 283 280 276 293 246 203 192 184 185 171 188 191 176 173 199 199 203 200 200 194 193 8 70 143 134 151 170 155 205 214 222 224 156 152 203 175 163 168 168 174 174 177 184 180 172 175 185 190 193 196 196 198 200 204
325 326 326 324 321 312 311 315 315 317 318 316 325 339 353 347 329 312 308 295 284 277 268 263 257 255 265 274 279 287 292 294 290 280 277 271 258 273 238 192 175 180 188 160 162 185 170 198 221 206 194 183 175 160 205 265 31 99 137 152 175 172 199 220 213 228 173 166 240 162 154 173 173 176 179 176 179 181 176 180 189 191 194 199 199 200 202 205
325 321 320 324 321 311 307 310 312 314 315 312 316 328 334 329 308 303 310 294 287 286 275 270 264 260 268 273 274 278 278 283 287 283 284 271 235 217 190 181 190 184 157 150 176 195 189 222 220 181 139 135 155 159 192 235 281 53 99 133 170 195 205 242 237 327 166 175 235 167 152 174 182 177 180 179 181 188 187 187 192 194 194 198 200 201 203 206
325 321 319 323 322 312 305 307 311 315 311 303 307 316 316 317 311 307 308 293 292 293 280 270 261 260 268 275 275 265 242 230 271 278 276 252 211 199 184 177 197 166 147 177 192 182 203 232 184 146 147 138 155 169 172 224 230 90 77 121 170 193 174 214 241 31 53 124 152 141 132 166 185 170 167 180 176 180 188 190 195 198 199 202 204 205 206 209
329 331 326 323 323 314 304 302 310 315 306 298 308 310 307 314 323 319 310 287 291 296 288 275 260 261 270 282 278 237 224 222 236 255 255 223 212 205 194 173 163 171 181 192 197 197 245 265 164 153 170 152 148 169 164 197 227 159 129 164 182 167 168 187 180 98 55 55 118 114 94 202 191 180 169 164 156 159 175 182 191 200 203 205 208 211 213 215
334 336 330 323 319 312 304 302 307 305 295 305 311 306 304 315 326 327 318 294 283 285 290 292 257 263 289 293 235 216 225 237 237 234 176 185 202 206 198 177 166 200 200 186 192 209 256 275 170 158 176 164 145 171 173 178 205 216 200 212 199 162 147 90 107 101 74 14 222 121 110 256 203 196 189 169 169 173 172 180 191 196 199 203 208 212 212 214
334 331 328 321 315 312 307 306 305 292 295 306 303 299 300 306 321 324 323 316 292 273 268 294 238 297 359 256 200 200 212 260 264 248 212 194 205 209 202 186 186 208 184 163 186 211 228 256 224 159 172 171 167 186 187 170 171 230 226 210 204 178 67 64 89 100 131 200 237 156 152 201 205 204 197 178 181 184 175 186 197 194 198 205 210 213 211 210
331 327 324 318 316 314 309 307 303 298 303 298 283 300 297 297 315 323 351 354 303 247 153 244 208 50 335 274 167 135 172 311 317 264 215 203 200 200 207 193 189 195 152 145 206 190 184 213 245 217 171 174 191 194 190 166 158 223 217 185 186 186 219 144 88 99 181 178 223 204 137 138 199 210 193 176 182 190 184 193 205 203 206 209 211 215 213 210
330 326 321 316 314 306 293 288 291 297 300 265 289 304 302 303 300 332 54 10 303 135 147 238 224 347 345 288 189 179 269 309 329 315 227 203 192 175 200 213 186 187 175 170 204 190 166 198 217 208 181 188 187 164 162 157 156 214 196 170 177 186 198 175 102 103 131 109 193 246 179 147 236 221 179 177 192 199 195 199 208 210 212 211 211 215 216 211
333 329 323 314 309 299 280 276 283 295 234 238 298 304 309 324 208 72 80 84 310 329 245 271 255 332 3 18 203 221 278 309 307 332 276 191 194 188 217 229 195 189 202 186 198 205 168 198 199 172 182 200 161 145 150 153 172 193 167 148 139 166 167 143 138 130 95 112 212 221 192 177 267 230 172 180 198 206 205 207 212 213 214 213 212 215 217 212
338 335 325 311 308 303 289 289 291 240 190 214 276 267 157 111 107 51 79 257 326 296 271 9 329 337 1 18 240 243 258 277 286 304 101 158 199 216 236 241 193 153 205 179 195 229 191 193 195 172 176 185 154 152 154 162 172 136 134 119 80 66 57 69 96 102 110 247 224 202 191 186 248 244 187 184 193 199 203 209 212 213 212 212 213 214 214 210
341 334 323 309 306 304 300 311 304 211 200 195 197 169 146 110 66 87 228 284 327 282 325 20 341 338 9 31 310 285 268 265 285 262 171 107 182 222 241 249 258 60 79 120 194 248 290 177 202 192 170 166 141 154 164 174 178 137 123 134 115 78 24 35 10 52 164 240 235 190 173 165 225 245 209 203 199 194 198 205 207 208 208 207 210 211 210 209
342 331 322 311 309 310 307 318 255 211 201 187 178 157 150 34 19 211 247 351 326 282 332 48 285 301 265 153 229 260 293 279 275 224 192 120 140 210 215 187 177 97 153 182 165 232 260 193 255 259 176 171 155 156 163 172 191 182 129 139 152 168 93 163 242 167 204 246 268 175 147 147 239 237 205 206 208 199 200 206 206 204 202 202 205 207 207 206
343 334 329 318 317 327 314 227 201 199 197 189 175 151 137 131 245 219 230 323 247 251 301 258 264 261 247 261 238 223 233 239 238 239 206 145 151 208 228 222 168 111 173 184 122 164 228 313 280 255 186 182 169 158 168 172 187 194 168 156 168 162 163 197 212 231 225 267 321 159 148 170 260 252 200 196 205 207 205 208 209 206 202 200 201 201 202 204
346 340 339 327 324 326 277 235 218 203 199 188 167 139 180 238 244 216 220 240 237 256 274 273 274 265 249 248 239 199 201 238 209 183 187 160 152 186 229 246 191 112 117 143 131 163 180 256 233 203 204 187 177 174 165 146 169 197 185 139 159 165 172 192 195 194 207 235 348 77 163 181 199 234 208 196 210 212 206 208 206 203 201 197 197 198 199 202
350 346 350 350 341 312 264 244 224 208 196 178 157 189 224 242 256 236 242 239 251 283 264 239 266 276 260 235 234 211 198 244 215 177 185 176 165 168 193 220 191 150 114 152 182 162 170 237 251 211 206 175 171 179 148 129 162 204 139 116 184 186 149 137 169 168 155 130 69 175 212 214 199 250 260 225 231 211 191 190 182 182 187 187 191 196 198 200
1 14 17 9 352 324 287 254 224 208 193 171 161 251 225 239 239 210 260 243 250 290 290 277 253 258 267 238 237 219 190 207 236 208 207 186 188 175 177 209 180 168 158 155 190 147 158 249 281 185 204 197 169 172 172 159 162 169 158 177 203 166 121 109 191 69 95 142 216 214 245 302 293 276 307 8 185 178 169 173 171 171 174 179 188 193 196 198
8 41 29 18 6 339 303 267 222 202 189 169 215 249 226 246 237 220 262 287 285 270 286 294 234 210 283 305 191 205 172 169 207 202 213 203 212 170 164 241 161 173 194 162 240 228 150 240 277 164 189 225 183 170 189 188 156 148 193 195 145 110 95 98 149 11 62 169 257 271 216 256 178 240 322 75 153 179 180 174 169 168 170 179 188 192 195 196
357 30 26 20 16 354 318 274 212 194 180 173 252 261 240 226 224 213 236 262 277 261 250 270 210 162 308 314 244 183 171 189 182 179 204 222 235 174 156 193 166 180 198 162 99 288 153 189 282 185 182 212 182 164 195 214 184 156 185 186 137 169 219 93 139 156 111 165 275 298 246 232 197 213 257 191 180 186 182 169 163 169 177 183 188 191 194 194
353 9 21 14 12 7 348 260 197 182 169 201 257 259 243 251 251 245 250 259 267 263 249 238 229 206 211 248 224 166 175 184 164 177 196 174 236 203 165 168 186 190 189 164 156 286 286 116 283 221 182 162 147 175 192 203 210 106 151 174 166 179 197 174 148 165 156 162 224 274 279 253 231 217 210 208 196 180 173 174 177 183 187 188 187 189 190 190
2 49 18 5 360 1 354 206 182 164 183 247 254 260 268 279 270 261 257 251 245 245 245 239 229 223 235 243 230 175 186 180 163 183 205 180 215 235 179 165 168 183 172 163 180 269 331 115 252 277 195 153 177 209 191 182 180 161 165 180 188 170 152 177 182 137 139 148 173 197 264 258 244 210 200 211 204 182 177 180 187 192 192 191 189 187 186 187
15 64 358 355 351 352 150 176 177 174 261 246 256 257 268 274 274 280 269 248 236 231 240 256 249 255 272 262 270 180 173 179 177 176 195 194 199 243 197 171 159 166 156 151 190 212 245 221 245 306 218 175 193 180 159 171 172 168 175 189 188 160 118 163 208 260 114 140 167 157 233 267 255 213 206 209 195 188 191 186 187 194 193 191 189 187 185 184
18 27 340 351 349 195 162 175 208 231 225 261 279 270 275 274 271 293 285 249 234 227 231 250 246 245 244 232 249 266 187 193 193 185 185 191 197 222 202 175 168 168 157 145 200 198 183 149 329 280 233 213 242 236 157 163 158 160 188 196 165 144 128 158 193 225 207 181 137 122 227 273 269 263 241 221 191 194 201 197 192 193 192 187 183 183 184 184
2 323 336 354 340 216 182 241 242 201 229 273 285 279 275 269 255 284 295 241 227 220 214 226 223 223 226 212 208 219 203 190 190 200 191 182 207 221 201 178 171 163 151 160 197 192 188 184 340 302 293 276 303 322 149 151 143 159 202 188 162 169 161 155 168 176 189 212 159 113 273 271 282 298 279 205 171 181 192 197 190 174 177 179 177 179 182 183
342 311 326 356 333 247 236 306 283 291 290 288 295 292 280 257 230 256 259 208 217 217 222 237 223 214 224 198 204 236 239 215 209 210 196 184 216 210 197 186 177 165 166 185 182 172 185 198 105 28 6 49 48 33 117 179 176 180 199 194 189 179 144 127 137 143 191 221 165 146 244 257 279 313 323 130 135 147 164 177 178 163 163 171 174 176 179 181
347 322 322 349 331 244 235 259 262 284 302 303 302 301 294 271 254 256 246 230 224 213 240 253 141 169 206 168 221 246 235 213 212 206 191 202 250 207 190 190 190 183 181 184 177 166 174 200 143 121 129 145 164 183 193 203 192 182 192 194 198 184 155 146 144 150 214 240 155 153 226 259 287 324 3 132 136 143 152 159 166 166 166 171 174 175 177 178
6 356 329 336 317 241 247 260 254 254 290 306 304 301 308 312 296 275 247 239 227 208 241 258 137 165 206 177 220 260 242 221 224 274 232 206 245 222 186 189 194 191 183 184 175 153 137 242 169 163 194 193 201 223 228 160 169 193 203 196 195 185 166 150 136 166 194 175 177 214 213 251 282 278 222 192 160 159 164 157 159 164 168 172 173 174 176 177
23 12 347 345 314 268 267 263 239 241 287 302 313 305 307 312 313 305 231 231 231 206 229 227 164 187 245 183 209 249 241 237 212 231 266 242 252 260 187 183 188 190 187 190 187 141 84 297 208 196 231 238 236 246 247 181 176 191 198 195 191 171 160 160 178 199 172 140 241 255 195 208 263 253 224 213 179 165 176 175 169 166 168 170 171 172 173 175
25 330 347 352 318 285 303 298 300 306 302 300 291 285 309 316 324 329 278 248 264 224 240 235 173 209 266 236 224 226 207 10 274 226 249 233 217 87 156 166 182 194 190 197 216 165 101 272 226 209 246 257 249 243 237 205 187 182 182 188 185 163 161 176 197 199 164 163 228 237 179 200 246 246 226 210 185 172 177 178 173 165 164 167 167 168 170 172
20 349 302 324 303 268 277 289 298 306 301 297 297 311 319 321 326 331 320 295 313 265 234 295 273 289 303 266 227 170 139 130 219 245 260 209 162 125 123 147 183 190 182 193 229 147 108 261 234 216 256 266 255 230 216 206 188 176 183 187 179 171 176 185 200 198 179 198 233 216 192 222 242 234 224 197 153 131 132 147 157 157 160 164 165 166 170 174
19 357 321 317 301 274 276 286 296 301 290 300 338 337 327 324 328 331 321 295 298 300 303 312 304 313 322 286 231 149 184 173 186 233 261 50 110 117 131 164 162 156 168 196 232 110 155 243 228 128 258 273 270 208 190 202 190 177 189 191 173 172 184 187 187 182 183 224 253 193 189 243 255 221 180 146 139 138 136 143 154 160 162 164 165 170 175 179
22 7 330 312 301 288 292 297 303 303 299 339 356 337 328 321 324 327 314 269 243 264 267 290 298 311 335 295 276 237 222 195 197 228 242 240 185 130 89 172 153 144 166 183 137 113 168 244 334 30 273 280 303 134 165 187 177 171 190 192 174 170 179 181 184 186 187 190 159 129 173 243 254 198 135 135 142 143 146 154 159 165 168 168 171 177 181 184
9 8 359 320 287 293 319 316 314 312 310 340 338 323 307 301 312 326 323 295 273 280 279 277 289 309 10 276 279 284 261 232 232 248 255 252 246 265 327 325 133 134 157 152 114 127 157 224 276 321 267 278 308 88 138 132 127 173 210 192 176 170 161 153 196 211 195 166 139 155 210 233 209 157 139 147 156 157 169 172 169 168 171 175 180 183 185 188